Location: Baia de Cri?
(46.1667°N, 22.7167°E)
Time: 20:40:55
(UTC+00:00)

Okean 3 Rocket - Pass Details

Date: 15 January 2026
Orbit: 610 x 637 km, 82.5° (Epoch: 10 February)

Event Time Altitude Azimuth Distance (km) Brightness Sun altitude
Rises 04:22:40 0° 211° (SSW) 2,870 6.8 -17.7°
Reaches altitude 10° 04:25:02 10° 220° (SW) 1,973 5.9 -17.3°
Maximum altitude 04:29:01 34° 286° (WNW) 1,025 4.1 -16.7°
Drops below altitude 10° 04:33:05 10° 352° (N) 2,002 6.0 -16.0°
Sets 04:35:30 0° 2° (N) 2,919 6.9 -15.6°
